GLO2408 SUMU-SBSV

Flight info

Callsign GLO2408
Flight time N/A
Altitude 37000
Route MOLBI DCT AKPOD UM540 KOXAG/N0447F390 UM540 ANISE UZ23 EDNOB
Aircraft B38M/M-SDE1FGHILORVWXY/HB1

Departure

Time 2026-04-21 05:25
Airport Carrasco General Cesáreo L. Berisso International Airport (SUMU)

Arrival

Time N/A
Airport Deputado Luiz Eduardo Magalhães International Airport (SBSV)
Time Latitude Longitude Altitude Speed Heading
2026-04-21 04:47 -34.83551 -56.01653 94 ft 0 kts 150°
2026-04-21 05:11 -34.83538 -56.01662 96 ft 2 kts 149°
2026-04-21 05:11 -34.83524 -56.01672 95 ft 2 kts 148°
2026-04-21 05:11 -34.83510 -56.01683 96 ft 2 kts 149°
2026-04-21 05:11 -34.83497 -56.01695 96 ft 2 kts 132°
2026-04-21 05:12 -34.83487 -56.01711 96 ft 2 kts 127°
2026-04-21 05:12 -34.83477 -56.01727 95 ft 2 kts 126°
2026-04-21 05:12 -34.83467 -56.01743 97 ft 2 kts 131°
2026-04-21 05:12 -34.83455 -56.01757 97 ft 2 kts 137°
2026-04-21 05:13 -34.83442 -56.01770 96 ft 2 kts 143°
2026-04-21 05:13 -34.83434 -56.01777 95 ft 1 kts 145°
2026-04-21 05:16 -34.83435 -56.01776 97 ft 1 kts 145°
2026-04-21 05:16 -34.83452 -56.01762 96 ft 5 kts 145°
2026-04-21 05:17 -34.83489 -56.01760 95 ft 7 kts 216°
2026-04-21 05:17 -34.83525 -56.01814 97 ft 10 kts 232°
2026-04-21 05:17 -34.83578 -56.01899 93 ft 15 kts 233°
2026-04-21 05:17 -34.83650 -56.02016 94 ft 20 kts 233°
2026-04-21 05:18 -34.83739 -56.02164 88 ft 19 kts 234°
2026-04-21 05:18 -34.83819 -56.02242 89 ft 13 kts 180°
2026-04-21 05:18 -34.83925 -56.02245 88 ft 16 kts 190°
2026-04-21 05:18 -34.83950 -56.02287 83 ft 6 kts 269°
2026-04-21 05:19 -34.83950 -56.02350 82 ft 9 kts 271°
2026-04-21 05:19 -34.83948 -56.02447 80 ft 13 kts 271°
2026-04-21 05:19 -34.83947 -56.02574 79 ft 17 kts 270°
2026-04-21 05:19 -34.83971 -56.02718 72 ft 19 kts 244°
2026-04-21 05:20 -34.84012 -56.02870 75 ft 21 kts 271°
2026-04-21 05:20 -34.84012 -56.02953 74 ft 0 kts 270°
2026-04-21 05:20 -34.84012 -56.02967 74 ft 7 kts 271°
2026-04-21 05:21 -34.84016 -56.03068 73 ft 14 kts 253°
2026-04-21 05:21 -34.84058 -56.03181 71 ft 15 kts 245°
2026-04-21 05:21 -34.84110 -56.03299 71 ft 17 kts 239°
2026-04-21 05:21 -34.84173 -56.03435 69 ft 20 kts 241°
2026-04-21 05:22 -34.84182 -56.03455 70 ft 0 kts 243°
2026-04-21 05:22 -34.84185 -56.03464 68 ft 5 kts 243°
2026-04-21 05:22 -34.84220 -56.03550 66 ft 17 kts 243°
2026-04-21 05:23 -34.84240 -56.03667 63 ft 2 kts 302°
2026-04-21 05:23 -34.84220 -56.03676 66 ft 8 kts 346°
2026-04-21 05:23 -34.84175 -56.03631 68 ft 10 kts 52°
2026-04-21 05:23 -34.84170 -56.03624 69 ft 4 kts 53°
2026-04-21 05:24 -34.84099 -56.03505 70 ft 42 kts 53°
2026-04-21 05:24 -34.83795 -56.03010 67 ft 104 kts 53°
2026-04-21 05:24 -34.83258 -56.02132 93 ft 153 kts 53°
2026-04-21 05:24 -34.82601 -56.01053 520 ft 162 kts 54°
2026-04-21 05:25 -34.81891 -55.99959 1077 ft 168 kts 42°
2026-04-21 05:25 -34.80995 -55.99097 1765 ft 161 kts 39°
2026-04-21 05:25 -34.80094 -55.98214 2351 ft 173 kts 39°
2026-04-21 05:25 -34.79126 -55.97239 2824 ft 189 kts 39°
2026-04-21 05:26 -34.78065 -55.96153 3217 ft 213 kts 39°
2026-04-21 05:26 -34.76899 -55.94942 3667 ft 233 kts 40°
2026-04-21 05:26 -34.75652 -55.93636 4432 ft 237 kts 40°
2026-04-21 05:26 -34.74385 -55.92302 5185 ft 247 kts 41°
2026-04-21 05:27 -34.73047 -55.90891 5744 ft 263 kts 40°
2026-04-21 05:27 -34.71630 -55.89391 6355 ft 274 kts 40°
2026-04-21 05:27 -34.70187 -55.87864 7187 ft 276 kts 40°
2026-04-21 05:27 -34.68725 -55.86315 7923 ft 282 kts 40°
2026-04-21 05:28 -34.67234 -55.84737 8670 ft 286 kts 39°
2026-04-21 05:28 -34.65721 -55.83134 9424 ft 291 kts 39°
2026-04-21 05:28 -34.64199 -55.81524 10145 ft 296 kts 39°
2026-04-21 05:28 -34.62618 -55.79854 10691 ft 308 kts 39°
2026-04-21 05:29 -34.60957 -55.78098 11078 ft 325 kts 39°
2026-04-21 05:29 -34.59213 -55.76256 11537 ft 339 kts 39°
2026-04-21 05:29 -34.57427 -55.74371 12303 ft 341 kts 38°
2026-04-21 05:29 -34.55628 -55.72473 13071 ft 345 kts 38°
2026-04-21 05:30 -34.53801 -55.70547 13839 ft 350 kts 38°
2026-04-21 05:30 -34.51979 -55.68627 14527 ft 354 kts 38°
2026-04-21 05:30 -34.50115 -55.66664 15249 ft 358 kts 38°
2026-04-21 05:30 -34.48226 -55.64677 15950 ft 362 kts 38°
2026-04-21 05:31 -34.46312 -55.62664 16656 ft 366 kts 37°
2026-04-21 05:31 -34.44404 -55.60658 17196 ft 361 kts 37°
2026-04-21 05:31 -34.42483 -55.58640 17673 ft 370 kts 37°
2026-04-21 05:31 -34.40520 -55.56580 18279 ft 375 kts 37°
2026-04-21 05:32 -34.38542 -55.54505 18895 ft 378 kts 37°
2026-04-21 05:32 -34.36543 -55.52409 19443 ft 382 kts 37°
2026-04-21 05:32 -34.34561 -55.50320 20014 ft 385 kts 37°
2026-04-21 05:32 -34.32533 -55.48159 20585 ft 389 kts 37°
2026-04-21 05:33 -34.30491 -55.45986 21120 ft 393 kts 37°
2026-04-21 05:33 -34.28430 -55.43796 21668 ft 396 kts 37°
2026-04-21 05:33 -34.26353 -55.41591 22202 ft 400 kts 37°
2026-04-21 05:33 -34.24254 -55.39362 22728 ft 403 kts 37°
2026-04-21 05:34 -34.22136 -55.37116 23251 ft 407 kts 37°
2026-04-21 05:34 -34.20028 -55.34883 23748 ft 410 kts 37°
2026-04-21 05:34 -34.17875 -55.32603 24168 ft 414 kts 36°
2026-04-21 05:34 -34.15698 -55.30299 24595 ft 417 kts 36°
2026-04-21 05:35 -34.13512 -55.27988 25031 ft 420 kts 36°
2026-04-21 05:35 -34.11300 -55.25651 25425 ft 423 kts 36°
2026-04-21 05:35 -34.09078 -55.23304 25847 ft 426 kts 36°
2026-04-21 05:35 -34.06841 -55.20943 26239 ft 429 kts 36°
2026-04-21 05:36 -34.04579 -55.18559 26619 ft 433 kts 36°
2026-04-21 05:36 -34.02336 -55.16196 27015 ft 435 kts 36°
2026-04-21 05:36 -34.00047 -55.13786 27396 ft 439 kts 36°
2026-04-21 05:36 -33.97742 -55.11361 27764 ft 442 kts 36°
2026-04-21 05:37 -33.95411 -55.08910 28113 ft 446 kts 35°
2026-04-21 05:37 -33.93071 -55.06451 28482 ft 448 kts 35°
2026-04-21 05:37 -33.90709 -55.03973 28845 ft 451 kts 35°
2026-04-21 05:37 -33.88336 -55.01483 29196 ft 455 kts 35°
2026-04-21 05:38 -33.85944 -54.98976 29536 ft 458 kts 35°
2026-04-21 05:38 -33.83565 -54.96485 29865 ft 461 kts 35°
2026-04-21 05:38 -33.81139 -54.93947 30192 ft 464 kts 35°
2026-04-21 05:38 -33.78703 -54.91399 30470 ft 467 kts 35°
2026-04-21 05:39 -33.76239 -54.88826 30743 ft 470 kts 34°
2026-04-21 05:39 -33.73772 -54.86250 31007 ft 473 kts 34°
2026-04-21 05:39 -33.71280 -54.83650 31284 ft 476 kts 34°
2026-04-21 05:39 -33.68772 -54.81036 31529 ft 479 kts 34°
2026-04-21 05:40 -33.66246 -54.78406 31791 ft 482 kts 34°
2026-04-21 05:40 -33.63708 -54.75765 32057 ft 485 kts 34°
2026-04-21 05:40 -33.61156 -54.73111 32306 ft 488 kts 34°
2026-04-21 05:40 -33.58621 -54.70477 32568 ft 490 kts 33°
2026-04-21 05:41 -33.56032 -54.67789 32874 ft 491 kts 33°
2026-04-21 05:41 -33.53454 -54.65115 33241 ft 491 kts 33°
2026-04-21 05:41 -33.50868 -54.62435 33597 ft 491 kts 33°
2026-04-21 05:41 -33.48284 -54.59759 33938 ft 491 kts 33°
2026-04-21 05:42 -33.45697 -54.57083 34250 ft 492 kts 33°
2026-04-21 05:42 -33.43109 -54.54407 34535 ft 492 kts 32°
2026-04-21 05:42 -33.40553 -54.51766 34835 ft 491 kts 32°
2026-04-21 05:42 -33.37964 -54.49094 35131 ft 491 kts 32°
2026-04-21 05:43 -33.35380 -54.46429 35406 ft 491 kts 32°
2026-04-21 05:43 -33.32792 -54.43762 35684 ft 490 kts 32°
2026-04-21 05:43 -33.30209 -54.41103 35967 ft 490 kts 32°
2026-04-21 05:43 -33.27628 -54.38447 36219 ft 490 kts 32°
2026-04-21 05:44 -33.25043 -54.35790 36481 ft 489 kts 32°
2026-04-21 05:44 -33.22463 -54.33140 36734 ft 489 kts 32°
2026-04-21 05:44 -33.19917 -54.30527 36976 ft 489 kts 32°
2026-04-21 05:44 -33.17345 -54.27888 37059 ft 488 kts 32°
2026-04-21 05:45 -33.12196 -54.22615 37058 ft 487 kts 32°
2026-04-21 05:45 -33.07062 -54.17365 37047 ft 487 kts 32°
2026-04-21 05:46 -33.01918 -54.12112 37044 ft 487 kts 32°
2026-04-21 05:46 -32.96807 -54.06903 37049 ft 487 kts 32°
2026-04-21 05:47 -32.91657 -54.01661 37042 ft 487 kts 32°
2026-04-21 05:47 -32.87384 -53.97318 37051 ft 487 kts 32°
2026-04-21 05:48 -32.81358 -53.91205 37049 ft 487 kts 32°
2026-04-21 05:48 -32.76231 -53.86011 37042 ft 487 kts 32°
2026-04-21 05:49 -32.71069 -53.80790 37046 ft 487 kts 32°
2026-04-21 05:49 -32.65909 -53.75580 37043 ft 487 kts 32°
2026-04-21 05:50 -32.60750 -53.70376 37040 ft 487 kts 32°
2026-04-21 05:50 -32.55611 -53.65203 37038 ft 487 kts 32°
2026-04-21 05:51 -32.50443 -53.60007 37040 ft 487 kts 32°
2026-04-21 05:51 -32.45335 -53.54698 37042 ft 491 kts 34°
2026-04-21 05:52 -32.41166 -53.50151 37037 ft 490 kts 34°
2026-04-21 05:52 -32.36139 -53.44709 37035 ft 490 kts 34°
2026-04-21 05:53 -32.30283 -53.38383 37036 ft 490 kts 34°
2026-04-21 05:53 -32.26065 -53.33834 37033 ft 490 kts 34°
2026-04-21 05:54 -32.21066 -53.28450 37043 ft 490 kts 34°
2026-04-21 05:54 -32.16025 -53.23029 37035 ft 490 kts 34°
2026-04-21 05:55 -32.10988 -53.17621 37040 ft 490 kts 34°
2026-04-21 05:55 -32.05940 -53.12211 37039 ft 490 kts 34°
2026-04-21 05:56 -32.00927 -53.06846 37046 ft 490 kts 34°
2026-04-21 05:56 -31.95881 -53.01453 37042 ft 490 kts 34°
2026-04-21 05:57 -31.90825 -52.96059 37043 ft 490 kts 34°
2026-04-21 05:57 -31.85768 -52.90671 37045 ft 490 kts 34°
2026-04-21 05:58 -31.80739 -52.85323 37041 ft 491 kts 34°
2026-04-21 05:58 -31.75668 -52.79937 37042 ft 491 kts 34°
2026-04-21 05:59 -31.70597 -52.74560 37037 ft 491 kts 34°
2026-04-21 06:00 -31.62979 -52.66497 37037 ft 492 kts 34°
2026-04-21 06:00 -31.57899 -52.61129 37028 ft 492 kts 34°
2026-04-21 06:01 -31.52844 -52.55787 37036 ft 493 kts 35°
2026-04-21 06:01 -31.47752 -52.50407 37043 ft 493 kts 34°
2026-04-21 06:02 -31.42655 -52.45031 37041 ft 493 kts 35°
2026-04-21 06:02 -31.37589 -52.39696 37041 ft 494 kts 35°
2026-04-21 06:03 -31.32484 -52.34327 37050 ft 494 kts 35°
2026-04-21 06:03 -31.27374 -52.28962 37036 ft 493 kts 35°
2026-04-21 06:04 -31.22267 -52.23607 37041 ft 494 kts 35°
2026-04-21 06:04 -31.17179 -52.18282 37041 ft 494 kts 35°
2026-04-21 06:05 -31.12063 -52.12934 37039 ft 494 kts 35°
2026-04-21 06:05 -31.06943 -52.07591 37041 ft 494 kts 35°
2026-04-21 06:06 -31.01819 -52.02251 37039 ft 494 kts 35°
2026-04-21 06:06 -30.96682 -51.96906 37041 ft 495 kts 35°
2026-04-21 06:07 -30.91583 -51.91608 37045 ft 495 kts 35°
2026-04-21 06:07 -30.86440 -51.86273 37042 ft 495 kts 35°
2026-04-21 06:08 -30.81288 -51.80937 37043 ft 495 kts 35°
2026-04-21 06:08 -30.76136 -51.75607 37039 ft 496 kts 35°
2026-04-21 06:09 -30.71018 -51.70322 37035 ft 496 kts 35°
2026-04-21 06:09 -30.65860 -51.65003 37037 ft 496 kts 35°
2026-04-21 06:10 -30.60700 -51.59689 37036 ft 496 kts 35°
2026-04-21 06:10 -30.55536 -51.54377 37026 ft 496 kts 35°
2026-04-21 06:11 -30.50328 -51.49161 37024 ft 494 kts 34°
2026-04-21 06:11 -30.45156 -51.43995 37024 ft 494 kts 34°
2026-04-21 06:12 -30.39942 -51.38792 37024 ft 494 kts 34°
2026-04-21 06:12 -30.34732 -51.33601 37015 ft 494 kts 34°
2026-04-21 06:13 -30.29525 -51.28419 37012 ft 494 kts 34°
2026-04-21 06:13 -30.24369 -51.23297 37025 ft 494 kts 34°
2026-04-21 06:14 -30.19132 -51.18101 37023 ft 494 kts 34°
2026-04-21 06:14 -30.13913 -51.12930 37024 ft 494 kts 34°
2026-04-21 06:15 -30.08721 -51.07793 37019 ft 494 kts 34°
2026-04-21 06:15 -30.03498 -51.02634 37015 ft 495 kts 34°
2026-04-21 06:16 -29.98264 -50.97471 37018 ft 495 kts 34°
2026-04-21 06:16 -29.93024 -50.92309 37019 ft 495 kts 34°
2026-04-21 06:17 -29.87780 -50.87249 37011 ft 492 kts 30°
2026-04-21 06:17 -29.82302 -50.82528 37010 ft 493 kts 31°
2026-04-21 06:18 -29.76843 -50.77754 37012 ft 493 kts 31°
2026-04-21 06:18 -29.71382 -50.72979 37014 ft 493 kts 31°
2026-04-21 06:19 -29.65921 -50.68210 37018 ft 493 kts 31°
2026-04-21 06:19 -29.60489 -50.63472 37022 ft 493 kts 31°
2026-04-21 06:20 -29.55024 -50.58712 37035 ft 494 kts 31°
2026-04-21 06:20 -29.49535 -50.53975 37033 ft 493 kts 31°
2026-04-21 06:21 -29.44043 -50.49250 37047 ft 493 kts 31°
2026-04-21 06:21 -29.38592 -50.44567 37062 ft 493 kts 31°
2026-04-21 06:22 -29.33095 -50.39851 37069 ft 493 kts 31°
2026-04-21 06:22 -29.27603 -50.35146 37077 ft 493 kts 31°
2026-04-21 06:23 -29.22106 -50.30442 37082 ft 493 kts 31°
2026-04-21 06:23 -29.16608 -50.25745 37083 ft 493 kts 31°
2026-04-21 06:24 -29.11148 -50.21086 37087 ft 493 kts 31°
2026-04-21 06:24 -29.05644 -50.16396 37090 ft 493 kts 31°
2026-04-21 06:25 -29.00141 -50.11713 37089 ft 493 kts 31°
2026-04-21 06:25 -28.94637 -50.07036 37086 ft 493 kts 31°
2026-04-21 06:26 -28.89171 -50.02398 37093 ft 493 kts 31°
2026-04-21 06:26 -28.83660 -49.97727 37096 ft 493 kts 31°
2026-04-21 06:27 -28.78176 -49.93085 37124 ft 491 kts 31°
2026-04-21 06:27 -28.72678 -49.88438 37104 ft 492 kts 31°
2026-04-21 06:28 -28.67223 -49.83832 37118 ft 492 kts 31°
2026-04-21 06:28 -28.61727 -49.79199 37127 ft 492 kts 31°
2026-04-21 06:29 -28.56222 -49.74559 37110 ft 492 kts 31°
2026-04-21 06:29 -28.50723 -49.69933 37103 ft 492 kts 31°
2026-04-21 06:30 -28.45252 -49.65338 37105 ft 492 kts 31°
2026-04-21 06:30 -28.39755 -49.60728 37107 ft 491 kts 31°
2026-04-21 06:31 -28.34253 -49.56120 37111 ft 491 kts 31°
2026-04-21 06:31 -28.28756 -49.51522 37116 ft 491 kts 31°
2026-04-21 06:32 -28.23304 -49.46968 37093 ft 490 kts 31°
2026-04-21 06:32 -28.17793 -49.42370 37109 ft 492 kts 31°
2026-04-21 06:33 -28.12295 -49.37790 37103 ft 490 kts 31°
2026-04-21 06:33 -28.06823 -49.33178 37103 ft 491 kts 32°
2026-04-21 06:34 -28.01360 -49.28531 37101 ft 490 kts 32°
2026-04-21 06:34 -27.95948 -49.23938 37106 ft 490 kts 32°
2026-04-21 06:35 -27.90488 -49.19310 37104 ft 490 kts 32°
2026-04-21 06:35 -27.84959 -49.14811 37114 ft 489 kts 30°
2026-04-21 06:36 -27.79419 -49.10346 37105 ft 489 kts 30°
2026-04-21 06:36 -27.73916 -49.05910 37121 ft 490 kts 30°
2026-04-21 06:37 -27.68402 -49.01427 37113 ft 490 kts 31°
2026-04-21 06:37 -27.62885 -48.96911 37107 ft 490 kts 31°
2026-04-21 06:38 -27.57370 -48.92370 37101 ft 491 kts 31°
2026-04-21 06:38 -27.51853 -48.87835 37107 ft 491 kts 31°
2026-04-21 06:39 -27.46365 -48.83329 37074 ft 492 kts 31°
2026-04-21 06:39 -27.40836 -48.78796 37103 ft 492 kts 31°
2026-04-21 06:40 -27.36243 -48.75036 37102 ft 491 kts 31°
2026-04-21 06:40 -27.33284 -48.72613 37077 ft 491 kts 31°
2026-04-21 06:41 -27.27785 -48.68118 37085 ft 492 kts 31°
2026-04-21 06:41 -27.22282 -48.63513 37077 ft 493 kts 32°
2026-04-21 06:42 -27.16764 -48.58950 37083 ft 493 kts 31°
2026-04-21 06:42 -27.11240 -48.54457 37078 ft 493 kts 31°
2026-04-21 06:43 -27.05679 -48.49967 37074 ft 493 kts 31°
2026-04-21 06:43 -27.00118 -48.45478 37071 ft 493 kts 31°
2026-04-21 06:44 -26.94546 -48.40986 37072 ft 493 kts 31°
2026-04-21 06:44 -26.88972 -48.36498 37067 ft 493 kts 31°
2026-04-21 06:45 -26.83442 -48.32051 37066 ft 493 kts 31°
2026-04-21 06:45 -26.77862 -48.27570 37070 ft 493 kts 31°
2026-04-21 06:46 -26.72295 -48.23102 37066 ft 493 kts 31°
2026-04-21 06:46 -26.66727 -48.18615 37066 ft 493 kts 31°
2026-04-21 06:47 -26.61192 -48.14162 37068 ft 493 kts 31°
2026-04-21 06:47 -26.55620 -48.09686 37063 ft 494 kts 31°
2026-04-21 06:48 -26.50044 -48.05211 37064 ft 493 kts 31°
2026-04-21 06:48 -26.44468 -48.00742 37062 ft 493 kts 31°
2026-04-21 06:49 -26.38925 -47.96305 37060 ft 493 kts 32°
2026-04-21 06:49 -26.33355 -47.91850 37058 ft 493 kts 32°
2026-04-21 06:50 -26.27771 -47.87390 37064 ft 493 kts 32°
2026-04-21 06:50 -26.22199 -47.82942 37062 ft 493 kts 32°
2026-04-21 06:51 -26.16631 -47.78505 37060 ft 492 kts 32°
2026-04-21 06:51 -26.11098 -47.74101 37061 ft 492 kts 32°
2026-04-21 06:52 -26.05532 -47.69675 37062 ft 492 kts 32°
2026-04-21 06:52 -25.99967 -47.65257 37060 ft 491 kts 32°
2026-04-21 06:53 -25.94441 -47.60875 37059 ft 491 kts 32°
2026-04-21 06:53 -25.88882 -47.56471 37060 ft 491 kts 32°
2026-04-21 06:54 -25.83321 -47.52071 37057 ft 490 kts 32°
2026-04-21 06:54 -25.77768 -47.47682 37067 ft 490 kts 32°
2026-04-21 06:55 -25.72211 -47.43297 37056 ft 490 kts 32°
2026-04-21 06:55 -25.66691 -47.38944 37062 ft 490 kts 32°
2026-04-21 06:56 -25.61131 -47.34566 37066 ft 490 kts 32°
2026-04-21 06:56 -25.55578 -47.30198 37061 ft 490 kts 32°
2026-04-21 06:57 -25.50016 -47.25828 37066 ft 490 kts 32°
2026-04-21 06:57 -25.44492 -47.21493 37055 ft 490 kts 32°
2026-04-21 06:58 -25.38931 -47.17134 37060 ft 490 kts 32°
2026-04-21 06:58 -25.33362 -47.12774 37061 ft 490 kts 32°
2026-04-21 06:59 -25.27794 -47.08419 37059 ft 490 kts 32°
2026-04-21 06:59 -25.22259 -47.04095 37055 ft 491 kts 32°
2026-04-21 07:00 -25.16683 -46.99743 37058 ft 491 kts 32°
2026-04-21 07:00 -25.10912 -46.95792 37065 ft 488 kts 27°
2026-04-21 07:01 -25.05070 -46.91978 37062 ft 489 kts 27°
2026-04-21 07:01 -24.96311 -46.86208 37069 ft 488 kts 27°
2026-04-21 07:02 -24.90519 -46.82396 37061 ft 488 kts 28°
2026-04-21 07:02 -24.84693 -46.78566 37062 ft 488 kts 28°
2026-04-21 07:03 -24.78868 -46.74741 37059 ft 488 kts 28°
2026-04-21 07:03 -24.73037 -46.70916 37060 ft 487 kts 28°
2026-04-21 07:04 -24.67259 -46.67130 37063 ft 487 kts 28°
2026-04-21 07:04 -24.61385 -46.63438 37039 ft 483 kts 18°
2026-04-21 07:05 -24.58192 -46.62456 37067 ft 474 kts
2026-04-21 07:05 -24.54924 -46.61917 37049 ft 475 kts
2026-04-21 07:05 -24.48412 -46.60931 37061 ft 475 kts
2026-04-21 07:06 -24.41861 -46.60018 37062 ft 475 kts
2026-04-21 07:06 -24.35301 -46.59119 37061 ft 475 kts
2026-04-21 07:07 -24.28734 -46.58222 37063 ft 475 kts
2026-04-21 07:07 -24.22175 -46.57326 37067 ft 475 kts
2026-04-21 07:08 -24.15661 -46.56438 37068 ft 475 kts
2026-04-21 07:08 -24.09098 -46.55545 37147 ft 477 kts
2026-04-21 07:09 -24.05811 -46.55096 37431 ft 476 kts
2026-04-21 07:09 -24.02524 -46.54648 37661 ft 476 kts
2026-04-21 07:09 -23.99237 -46.54200 37891 ft 477 kts
2026-04-21 07:09 -23.95971 -46.53756 38125 ft 477 kts
2026-04-21 07:10 -23.92686 -46.53308 38340 ft 477 kts
2026-04-21 07:10 -23.89393 -46.52831 38567 ft 478 kts
2026-04-21 07:10 -23.86474 -46.52023 38760 ft 481 kts 12°
2026-04-21 07:10 -23.83288 -46.51086 38911 ft 481 kts 11°
2026-04-21 07:11 -23.80057 -46.50139 39051 ft 481 kts 12°
2026-04-21 07:11 -23.77359 -46.49346 39124 ft 481 kts 12°
2026-04-21 07:11 -23.70911 -46.47447 39132 ft 479 kts 12°
2026-04-21 07:12 -23.64471 -46.45552 39133 ft 479 kts 12°
2026-04-21 07:12 -23.58067 -46.43670 39125 ft 479 kts 12°
2026-04-21 07:13 -23.51638 -46.41786 39131 ft 479 kts 12°
2026-04-21 07:13 -23.45195 -46.39893 39129 ft 479 kts 12°
2026-04-21 07:14 -23.38736 -46.38154 39133 ft 478 kts
2026-04-21 07:14 -23.32285 -46.36607 39120 ft 478 kts
2026-04-21 07:15 -23.25791 -46.35025 39117 ft 478 kts
2026-04-21 07:15 -23.19299 -46.33458 39114 ft 478 kts
2026-04-21 07:16 -23.12798 -46.31913 39107 ft 478 kts
2026-04-21 07:16 -23.06340 -46.30378 39109 ft 478 kts
2026-04-21 07:17 -22.99832 -46.28832 39108 ft 478 kts
2026-04-21 07:17 -22.93325 -46.27288 39112 ft 479 kts
2026-04-21 07:18 -22.86817 -46.25745 39112 ft 479 kts
2026-04-21 07:18 -22.80313 -46.24205 39115 ft 479 kts
2026-04-21 07:19 -22.74104 -46.21812 39109 ft 481 kts 33°
2026-04-21 07:19 -22.68611 -46.17608 39112 ft 485 kts 38°
2026-04-21 07:20 -22.63390 -46.12972 39118 ft 485 kts 39°
2026-04-21 07:20 -22.58151 -46.08361 39123 ft 486 kts 39°
2026-04-21 07:21 -22.52941 -46.03782 39125 ft 486 kts 39°
2026-04-21 07:21 -22.47692 -45.99174 39118 ft 486 kts 39°
2026-04-21 07:22 -22.42439 -45.94567 39121 ft 486 kts 39°
2026-04-21 07:22 -22.37332 -45.90092 39121 ft 487 kts 39°
2026-04-21 07:23 -22.32077 -45.85492 39114 ft 487 kts 39°
2026-04-21 07:23 -22.26835 -45.80932 39115 ft 487 kts 38°
2026-04-21 07:24 -22.21552 -45.76365 39115 ft 487 kts 39°
2026-04-21 07:24 -22.16268 -45.71798 39129 ft 487 kts 39°
2026-04-21 07:25 -22.10983 -45.67235 39116 ft 487 kts 38°
2026-04-21 07:25 -22.05729 -45.62705 39128 ft 487 kts 39°
2026-04-21 07:26 -22.00438 -45.58145 39113 ft 487 kts 39°
2026-04-21 07:26 -21.95152 -45.53595 39111 ft 487 kts 39°
2026-04-21 07:27 -21.89855 -45.49040 39115 ft 487 kts 39°
2026-04-21 07:27 -21.84598 -45.44524 39105 ft 487 kts 39°
2026-04-21 07:28 -21.79307 -45.39982 39120 ft 487 kts 39°
2026-04-21 07:28 -21.74006 -45.35438 39112 ft 487 kts 39°
2026-04-21 07:29 -21.68705 -45.30897 39109 ft 487 kts 39°
2026-04-21 07:29 -21.63442 -45.26394 39103 ft 487 kts 39°
2026-04-21 07:30 -21.58144 -45.21864 39110 ft 487 kts 39°
2026-04-21 07:30 -21.52841 -45.17335 39111 ft 487 kts 39°
2026-04-21 07:31 -21.47535 -45.12807 39106 ft 487 kts 39°
2026-04-21 07:31 -21.42232 -45.08287 39107 ft 487 kts 39°
2026-04-21 07:32 -21.36964 -45.03800 39104 ft 487 kts 39°
2026-04-21 07:32 -21.31658 -44.99285 39089 ft 487 kts 39°
2026-04-21 07:33 -21.26348 -44.94770 39101 ft 487 kts 39°
2026-04-21 07:33 -21.21035 -44.90258 39090 ft 487 kts 39°
2026-04-21 07:34 -21.15761 -44.85785 39109 ft 487 kts 39°
2026-04-21 07:34 -21.10456 -44.81289 39097 ft 487 kts 39°
2026-04-21 07:35 -21.05119 -44.76825 39090 ft 487 kts 36°
2026-04-21 07:35 -20.99590 -44.72632 39103 ft 487 kts 36°
2026-04-21 07:36 -20.94128 -44.68436 39099 ft 486 kts 36°
2026-04-21 07:36 -20.88635 -44.64216 39109 ft 486 kts 36°
2026-04-21 07:37 -20.83140 -44.60000 39092 ft 486 kts 36°
2026-04-21 07:37 -20.77642 -44.55796 39098 ft 486 kts 36°
2026-04-21 07:38 -20.72135 -44.51601 39094 ft 486 kts 36°
2026-04-21 07:38 -20.66672 -44.47441 39096 ft 486 kts 36°
2026-04-21 07:39 -20.61165 -44.43254 39098 ft 486 kts 36°
2026-04-21 07:39 -20.55661 -44.39071 39100 ft 486 kts 36°
2026-04-21 07:40 -20.50159 -44.34895 39091 ft 486 kts 36°
2026-04-21 07:40 -20.44696 -44.30743 39091 ft 485 kts 37°
2026-04-21 07:41 -20.39285 -44.26438 39089 ft 485 kts 37°
2026-04-21 07:41 -20.33863 -44.22143 39093 ft 486 kts 37°
2026-04-21 07:42 -20.28440 -44.17854 39089 ft 486 kts 37°
2026-04-21 07:42 -20.23015 -44.13567 39092 ft 486 kts 37°
2026-04-21 07:43 -20.17617 -44.09306 39089 ft 486 kts 37°
2026-04-21 07:43 -20.12185 -44.05021 39083 ft 486 kts 37°
2026-04-21 07:44 -20.06781 -44.00761 39089 ft 486 kts 37°
2026-04-21 07:44 -20.01359 -43.96491 39085 ft 485 kts 37°
2026-04-21 07:45 -19.95931 -43.92220 39078 ft 485 kts 37°
2026-04-21 07:45 -19.90542 -43.87984 39086 ft 485 kts 37°
2026-04-21 07:46 -19.85085 -43.83782 39087 ft 485 kts 34°
2026-04-21 07:46 -19.79537 -43.79786 39093 ft 485 kts 35°
2026-04-21 07:47 -19.73969 -43.75743 39087 ft 485 kts 35°
2026-04-21 07:47 -19.68407 -43.71708 39081 ft 484 kts 35°
2026-04-21 07:48 -19.62846 -43.67677 39084 ft 484 kts 35°
2026-04-21 07:48 -19.57279 -43.63646 39074 ft 484 kts 36°
2026-04-21 07:49 -19.51759 -43.59651 39072 ft 484 kts 35°
2026-04-21 07:49 -19.46201 -43.55633 39077 ft 483 kts 35°
2026-04-21 07:50 -19.40650 -43.51622 39077 ft 483 kts 35°
2026-04-21 07:50 -19.35134 -43.47640 39074 ft 483 kts 36°
2026-04-21 07:51 -19.29669 -43.43519 39082 ft 481 kts 39°
2026-04-21 07:51 -19.24321 -43.39246 39087 ft 481 kts 38°
2026-04-21 07:52 -19.18962 -43.35000 39086 ft 481 kts 38°
2026-04-21 07:52 -19.14511 -43.31477 39093 ft 481 kts 38°
2026-04-21 07:53 -19.08287 -43.26556 39085 ft 480 kts 38°
2026-04-21 07:53 -19.02936 -43.22329 39087 ft 480 kts 38°
2026-04-21 07:54 -18.97582 -43.18103 39080 ft 480 kts 38°
2026-04-21 07:54 -18.93143 -43.14601 39089 ft 479 kts 38°
2026-04-21 07:55 -18.87793 -43.10385 39082 ft 479 kts 38°
2026-04-21 07:55 -18.81582 -43.05493 39084 ft 479 kts 38°
2026-04-21 07:56 -18.77149 -43.01995 39089 ft 479 kts 38°
2026-04-21 07:56 -18.71818 -42.97783 39087 ft 479 kts 38°
2026-04-21 07:57 -18.66486 -42.93575 39086 ft 479 kts 38°
2026-04-21 07:57 -18.61151 -42.89368 39088 ft 478 kts 38°
2026-04-21 07:58 -18.55821 -42.85167 39092 ft 478 kts 38°
2026-04-21 07:58 -18.50529 -42.81006 39087 ft 478 kts 38°
2026-04-21 07:59 -18.45192 -42.76812 39087 ft 478 kts 38°
2026-04-21 07:59 -18.39863 -42.72628 39088 ft 478 kts 38°
2026-04-21 08:00 -18.34568 -42.68474 39085 ft 478 kts 38°
2026-04-21 08:00 -18.29243 -42.64300 39082 ft 477 kts 38°